DateTimeUTC,F1_A11,F1_S11,BsB_S11,BsG_S11,BsR_S11,BbsB_S11,BbsG_S11,BbsR_S11,BaB_A11,BaG_A11,BaR_A11,Tu_S11,T_S11,Uu_S11,U_S11,P_S11,T1_A11
2021-11-06T19:00:00Z,00000200,21000000,,,,,,,0000.64,0000.73,0000.41,17.6,24.9,,00.0,0645.9,30.9
2021-11-06T19:01:00Z,00000200,21000000,,,,,,,0000.25,0000.10,0000.33,17.6,24.9,,00.0,0645.9,30.9
2021-11-06T19:02:00Z,00000200,21000000,,,,,,,0000.07,0000.26,0000.53,17.5,24.9,,00.0,0645.9,30.9
2021-11-06T19:03:00Z,00000200,61000000,,,,,,,0000.64,0000.19,-000.17,17.5,24.9,,00.0,0645.9,30.9
2021-11-06T19:04:00Z,00000200,41000000,0001.16,0000.52,0000.23,0000.09,0000.09,-000.02,0004.88,0004.59,0003.59,17.8,24.7,,00.0,0646.9,30.9
2021-11-06T19:05:00Z,00000200,01000000,0004.82,0003.25,0001.85,0001.32,0000.69,0000.38,0047.37,0043.67,0035.31,17.8,24.7,,00.0,0647.0,30.9
2021-11-06T19:06:00Z,00000200,01000000,0006.13,0003.99,0002.37,0001.32,0000.95,0000.69,0068.02,0062.73,0050.58,17.8,24.7,,00.0,0647.0,30.9
2021-11-06T19:07:00Z,00000200,01000000,0004.74,0003.26,0002.19,0000.86,0000.76,0000.88,0050.48,0047.58,0037.93,17.8,24.6,,00.0,0647.0,30.9
2021-11-06T19:08:00Z,00000200,01000000,0007.10,0004.58,0003.07,0001.98,0001.20,0000.64,0074.99,0069.15,0055.68,17.8,24.6,,00.0,0647.0,30.9
2021-11-06T19:09:00Z,00000200,01000000,0008.19,0005.97,0003.77,0002.53,0001.03,0000.94,0105.69,0097.83,0078.63,17.8,24.6,,00.0,0647.0,30.9
2021-11-06T19:10:00Z,00000200,01000000,0002.37,0001.59,0001.15,0000.57,0000.42,0000.03,0035.12,0032.84,0026.62,17.8,24.6,,00.0,0646.9,30.9
2021-11-06T19:11:00Z,00000200,01000000,0000.92,0000.01,0000.08,0000.91,-000.04,0000.19,0003.09,0003.28,0002.62,17.8,24.6,,00.0,0646.9,30.9
2021-11-06T19:12:00Z,00000200,01000000,0000.70,0000.38,0000.28,0000.37,-000.13,0000.04,0001.26,0000.80,0000.84,17.8,24.6,,00.0,0646.9,30.9
2021-11-06T19:13:00Z,00000200,01000000,0000.66,0000.32,0000.39,0000.45,-000.17,0000.23,0000.64,0000.60,0000.62,17.8,24.6,,00.0,0647.0,30.9
2021-11-06T19:14:00Z,00000200,01000000,0003.77,0002.83,0001.86,0000.57,0000.64,0000.71,0037.44,0033.75,0026.66,17.8,24.6,,00.0,0647.0,30.9
2021-11-06T19:15:00Z,00000200,01000000,0005.22,0003.95,0002.82,0001.43,0001.29,0000.56,0075.81,0071.42,0057.58,17.8,24.6,,00.0,0647.0,30.9
2021-11-06T19:16:00Z,00000200,01000000,0001.21,0000.62,0000.56,0000.08,0000.09,0000.04,0008.09,0007.52,0006.12,17.8,24.6,,00.0,0647.0,30.9
2021-11-06T19:17:00Z,00000200,01000000,0000.29,-000.12,0000.30,0000.00,0000.48,0000.36,0001.18,0000.98,0000.73,17.8,24.6,,00.0,0647.0,30.9
2021-11-06T19:18:00Z,00000200,01000000,0000.68,0000.41,0000.41,0000.05,-000.20,0000.21,0000.90,0000.89,0000.45,17.8,24.5,,00.0,0647.1,30.9
2021-11-06T19:19:00Z,00000200,01000000,0000.00,0000.48,0000.27,-000.10,0000.27,0000.25,0000.28,0000.76,0000.61,17.8,24.5,,00.0,0647.0,30.8
2021-11-06T19:20:00Z,00000200,01000000,0000.39,0000.38,0000.28,0000.62,0000.02,-000.04,0001.02,0000.07,0000.24,17.8,24.5,,00.0,0647.0,30.9
2021-11-06T19:21:00Z,00000200,01000000,-000.29,0000.25,0000.20,0000.42,0000.13,-000.14,0000.29,0000.32,0000.65,17.8,24.5,,00.0,0647.0,30.9
2021-11-06T19:22:00Z,00000200,01000000,0000.33,0000.50,0000.08,0000.19,-000.05,0000.19,0000.69,0001.09,0000.38,17.8,24.5,,00.0,0646.9,30.9
2021-11-06T19:23:00Z,00000200,01000000,0000.43,0000.52,0000.70,0000.07,0000.13,0000.17,0002.21,0001.69,0001.38,17.7,24.5,,00.0,0646.9,30.8
2021-11-06T19:24:00Z,00000200,01000000,0001.20,0000.48,0000.47,0000.81,-000.13,0000.40,0007.08,0006.83,0005.47,17.7,24.5,,00.0,0646.8,30.8
2021-11-06T19:25:00Z,00000200,01000000,0001.79,0001.46,0000.91,0000.70,0000.04,0000.22,0015.17,0013.88,0011.08,17.7,24.5,,00.0,0646.9,30.8
2021-11-06T19:26:00Z,00000200,01000000,0000.99,0000.91,0000.62,-000.05,-000.01,0000.14,0012.69,0011.92,0010.08,17.7,24.5,,00.0,0646.9,30.8
2021-11-06T19:27:00Z,00000200,01000000,0000.85,0000.59,0000.16,0000.24,-000.03,0000.02,0002.60,0002.71,0001.94,17.7,24.5,,00.0,0646.9,30.8
2021-11-06T19:28:00Z,00000200,01000000,0000.05,0000.54,-000.03,0000.07,-000.10,-000.16,0000.62,0000.20,-000.13,17.7,24.5,,00.0,0646.9,30.8
2021-11-06T19:29:00Z,00000200,01000000,0001.06,0000.61,0000.32,0000.40,0000.03,0000.14,0000.40,0000.09,0000.62,17.6,24.5,,00.0,0646.9,30.8
2021-11-06T19:30:00Z,00000200,01000000,-000.30,0000.42,0000.46,0000.56,-000.16,0000.15,0000.12,0000.63,0000.16,17.6,24.5,,00.0,0646.9,30.8
2021-11-06T19:31:00Z,00000200,01000000,0000.91,0000.20,0000.30,-000.01,0000.04,-000.06,0000.46,0000.29,0000.02,17.6,24.5,,00.0,0646.9,30.8
2021-11-06T19:32:00Z,00000200,01000000,-000.28,0000.54,0000.30,0000.15,0000.21,0000.16,0000.55,0000.16,0000.43,17.6,24.5,,00.0,0646.9,30.8
2021-11-06T19:33:00Z,00000200,01000000,0000.08,0000.29,0000.03,0000.51,-000.06,-000.22,0000.36,0000.49,0000.42,17.6,24.4,,00.0,0646.9,30.8
2021-11-06T19:34:00Z,00000200,01000000,0000.84,0000.35,0000.45,0000.09,0000.28,0000.21,0000.41,0000.45,0000.28,17.6,24.4,,00.0,0646.9,30.8
2021-11-06T19:35:00Z,00000200,01000000,0001.06,0000.46,0000.27,0000.32,-000.17,0000.10,0000.28,0000.36,0000.31,17.6,24.4,,00.0,0646.9,30.8
2021-11-06T19:36:00Z,00000200,01000000,0000.49,0000.39,0000.26,0000.68,0000.30,-000.21,0000.16,0000.37,0000.13,17.6,24.4,,00.0,0646.9,30.8
2021-11-06T19:37:00Z,00000200,01000000,0000.09,0000.09,0000.14,-000.04,0000.14,-000.05,0000.48,0000.18,0000.18,17.6,24.4,,00.0,0646.8,30.8
2021-11-06T19:38:00Z,00000200,01000000,0000.63,0000.45,0000.13,0000.16,-000.02,0000.25,0000.74,0000.62,0000.39,17.6,24.4,,00.0,0646.8,30.8
2021-11-06T19:39:00Z,00000200,01000000,0000.57,0000.19,-000.16,0000.47,0000.11,-000.23,-000.07,0000.12,0000.41,17.5,24.3,,00.0,0646.8,30.8
2021-11-06T19:40:00Z,00000200,01000000,0001.56,0000.45,0000.08,0000.33,-000.13,0000.02,0000.60,0000.36,-000.06,17.6,24.4,,00.0,0646.8,30.8
2021-11-06T19:41:00Z,00000200,01000000,0000.90,0000.46,0000.21,0000.59,-000.05,0000.20,0000.28,0000.27,0000.83,17.5,24.4,,00.0,0646.8,30.8
2021-11-06T19:42:00Z,00000200,01000000,0000.73,0000.24,0000.29,0000.37,-000.04,-000.05,0000.27,0000.57,-000.19,17.5,24.3,,00.0,0646.8,30.8
2021-11-06T19:43:00Z,00000200,01000000,0001.01,0000.19,0000.11,0000.22,-000.07,0000.06,0000.27,0000.15,0000.54,17.5,24.3,,00.0,0646.7,30.8
2021-11-06T19:44:00Z,00000200,01000000,0000.62,0000.54,0000.05,-000.38,-000.09,-000.19,0000.62,0000.42,-000.02,17.5,24.3,,00.0,0646.7,30.8
2021-11-06T19:45:00Z,00000200,01000000,0000.57,0000.22,0000.05,0000.53,-000.21,-000.05,0000.30,0000.03,0000.13,17.5,24.3,,00.0,0646.7,30.8
2021-11-06T19:46:00Z,00000200,01000000,-000.08,0000.29,0000.12,0000.49,-000.24,-000.03,0000.39,0000.66,0000.33,17.5,24.3,,00.0,0646.7,30.8
2021-11-06T19:47:00Z,00000200,01000000,0000.12,-000.03,0000.39,0000.91,0000.06,0000.15,0000.09,0000.28,0000.09,17.4,24.3,,00.0,0646.7,30.8
2021-11-06T19:48:00Z,00000200,01000000,0000.18,0000.45,0000.54,0000.21,0000.02,0000.16,0000.36,0000.01,0000.43,17.4,24.3,,00.0,0646.8,30.8
2021-11-06T19:49:00Z,00000200,01000000,0000.51,0000.15,-000.10,0000.26,0000.09,-000.20,-000.02,0000.15,-000.19,17.4,24.2,,00.0,0646.8,30.8
2021-11-06T19:50:00Z,00000200,01000000,0000.61,0000.30,-000.06,0000.14,-000.09,-000.03,0000.52,0000.45,0000.33,17.4,24.2,,00.0,0646.7,30.8
2021-11-06T19:51:00Z,00000200,01000000,0000.80,0000.31,0000.19,0000.24,0000.19,-000.22,0000.26,0000.13,0000.28,17.4,24.2,,00.0,0646.7,30.8
2021-11-06T19:52:00Z,00000200,01000000,0000.72,0000.47,0000.11,0000.11,0000.32,0000.03,0000.20,0000.21,-000.08,17.4,24.2,,00.0,0646.6,30.8
2021-11-06T19:53:00Z,00000200,01000000,0001.12,0000.33,0000.22,-000.15,0000.13,-000.25,0000.39,0000.51,0000.51,17.4,24.2,,00.0,0646.7,30.8
2021-11-06T19:54:00Z,00000200,01000000,0000.35,0000.11,0000.24,0000.41,-000.02,0000.16,0000.29,0000.53,0000.44,17.4,24.2,,00.0,0646.6,30.8
2021-11-06T19:55:00Z,00000200,01000000,0000.43,0000.18,0000.23,0000.50,0000.02,0000.16,0000.38,-000.20,-000.06,17.4,24.2,,00.0,0646.7,30.8
2021-11-06T19:56:00Z,00000200,01000000,0000.56,0000.32,-000.01,0000.31,0000.10,0000.14,0000.12,0000.24,0000.43,17.3,24.2,,00.0,0646.7,30.8
2021-11-06T19:57:00Z,00000200,41000000,,,,,,,0000.81,0001.20,0000.67,17.4,24.2,,00.0,0646.6,30.8
2021-11-06T19:58:00Z,00000200,61000000,,,,,,,0000.12,-000.41,-000.13,17.0,24.3,,00.0,0645.7,30.8
2021-11-06T19:59:00Z,00000200,21000000,,,,,,,0000.16,0000.14,0000.01,17.0,24.4,,00.0,0645.7,30.8
